Kish Island, Iran

6:41 PM +0430 on September 19, 2017 (GMT +0430)
Kish

Weather History for OIBK - August, 2013

Change the Weather History Date:

Monday, August 26, 2013

  Actual Average Record
Temperature  
Mean Temperature 92 °F -  
Max Temperature 96 °F - - ()
Min Temperature 87 °F - - ()
Cooling Degree Days 26    
Growing Degree Days 42 (Base 50)    
Moisture  
Dew Point 84 °F    
Average Humidity 79    
Maximum Humidity 94    
Minimum Humidity 63    
Precipitation  
Precipitation 0.00 in - - ()
Sea Level Pressure  
Sea Level Pressure 29.50 in    
Wind  
Wind Speed 8 mph ()    
Max Wind Speed 14 mph    
Max Gust Speed -    
Visibility 2.9 miles    
Events      
T = Trace of Precipitation, MM = Missing Value Source: Averaged Metar Reports

Daily Weather History Graph

Daily Weather History Graph

Search for Another Location

Airport or City:

Trip Planner

Search our weather history database for the weather conditions in past years. The results will help you decide how hot, cold, wet, or windy it might be!

Date:

Astronomy

Aug. 26, 2013 Rise Set
Actual Time 6:31 AM +0430 7:20 PM +0430
Civil Twilight 6:07 AM +0430 7:43 PM +0430
Nautical Twilight 5:39 AM +0430 8:11 PM +0430
Astronomical Twilight 5:10 AM +0430 8:40 PM +0430
Moon 10:52 PM +0430 (8/26) 11:32 AM +0430 (8/26)
Length of Visible Light 13h 36m
Length of Day
12h 49m
Waning Gibbous, 70% of the Moon is Illuminated
Aug 26
Waning Gibbous
Aug 28
Last Quarter
Sep 5
New
Sep 12
First Quarter
Sep 19
Full

Hourly Weather History & Observations

Time (+0430) Temp. Heat Index Dew Point Humidity Pressure Visibility Wind Dir Wind Speed Gust Speed Precip Events Conditions
12:20 AM 89.6 °F 115.0 °F 84.2 °F 84% 29.50 in 2.8 mi WNW 4.6 mph - N/A   Clear
12:30 AM 89.6 °F 115.0 °F 84.2 °F 84% 29.50 in 2.8 mi WNW 4.6 mph - N/A   Clear
1:20 AM 89.6 °F 115.0 °F 84.2 °F 84% 29.65 in 2.8 mi WNW 6.9 mph - N/A   Clear
1:30 AM 89.6 °F 115.0 °F 84.2 °F 84% 29.65 in 2.8 mi WNW 6.9 mph - N/A   Clear
2:20 AM 87.8 °F 115.4 °F 86.0 °F 94% 29.47 in 2.8 mi WNW 6.9 mph - N/A   Clear
2:30 AM 87.8 °F 115.4 °F 86.0 °F 94% 29.47 in 2.8 mi WNW 6.9 mph - N/A   Clear
3:20 AM 87.8 °F 115.4 °F 86.0 °F 94% 29.47 in 2.5 mi NNW 4.6 mph - N/A   Clear
3:30 AM 87.8 °F 115.4 °F 86.0 °F 94% 29.47 in 2.5 mi NNW 4.6 mph - N/A   Clear
4:30 AM 87.8 °F 111.7 °F 84.2 °F 89% 29.47 in 2.5 mi East 4.6 mph - N/A   Clear
5:20 AM 87.8 °F 115.4 °F 86.0 °F 94% 29.47 in 2.5 mi East 6.9 mph - N/A   Clear
5:30 AM 87.8 °F 115.4 °F 86.0 °F 94% 29.47 in 2.5 mi East 6.9 mph - N/A   Clear
6:20 AM 87.8 °F 115.4 °F 86.0 °F 94% 29.50 in 2.5 mi ESE 9.2 mph - N/A   Clear
6:30 AM 87.8 °F 115.4 °F 86.0 °F 94% 29.50 in 2.5 mi ESE 9.2 mph - N/A   Clear
7:20 AM 87.8 °F 111.7 °F 84.2 °F 89% 29.50 in 3.1 mi ESE 9.2 mph - N/A   Mist
7:30 AM 87.8 °F 111.7 °F 84.2 °F 89% 29.50 in 3.1 mi ESE 9.2 mph - N/A   Mist
8:00 AM 89.6 °F 119.2 °F 86.0 °F 89% 29.50 in 3.1 mi East 6.9 mph - N/A   Mist
8:20 AM 89.6 °F 111.1 °F 82.4 °F 79% 29.53 in 3.1 mi ESE 9.2 mph - N/A   Mist
8:30 AM 89.6 °F 111.1 °F 82.4 °F 79% 29.53 in 3.1 mi ESE 9.2 mph - N/A   Mist
9:00 AM 91.4 °F 114.3 °F 82.4 °F 75% 29.53 in 3.1 mi ESE 9.2 mph - N/A   Haze
9:20 AM 93.2 °F 117.1 °F 82.4 °F 71% 29.56 in 3.1 mi ESE 11.5 mph - N/A   Haze
9:30 AM 93.2 °F 117.1 °F 82.4 °F 71% 29.56 in 3.1 mi ESE 11.5 mph - N/A   Haze
10:00 AM 93.2 °F 120.9 °F 84.2 °F 75% - 3.1 mi SE 11.5 mph - N/A   Haze
10:20 AM 93.2 °F 120.9 °F 84.2 °F 75% 29.56 in 3.1 mi SE 11.5 mph - N/A   Haze
10:30 AM 93.2 °F 120.9 °F 84.2 °F 75% 29.56 in 3.1 mi SE 11.5 mph - N/A   Haze
11:00 AM 93.2 °F 117.1 °F 82.4 °F 71% 29.56 in 3.1 mi SE 9.2 mph - N/A   Haze
11:20 AM 93.2 °F 113.6 °F 80.6 °F 67% 29.56 in 3.1 mi SE 11.5 mph - N/A   Haze
11:30 AM 93.2 °F 113.6 °F 80.6 °F 67% 29.56 in 3.1 mi SE 11.5 mph - N/A   Haze
12:00 PM 95.0 °F 119.6 °F 82.4 °F 67% 29.56 in 3.1 mi SSE 6.9 mph - N/A   Haze
12:20 PM 96.8 °F 121.7 °F 82.4 °F 63% 29.56 in 3.1 mi SSE 6.9 mph - N/A   Haze
12:30 PM 96.8 °F 121.7 °F 82.4 °F 63% 29.56 in 3.1 mi SSE 6.9 mph - N/A   Haze
1:20 PM 96.8 °F 126.0 °F 84.2 °F 67% 29.53 in 3.1 mi South 9.2 mph - N/A   Haze
1:30 PM 96.8 °F 126.0 °F 84.2 °F 67% 29.53 in 3.1 mi South 9.2 mph - N/A   Haze
2:20 PM 95.0 °F 119.6 °F 82.4 °F 67% 29.50 in 3.1 mi SSW 6.9 mph - N/A   Haze
2:30 PM 95.0 °F 119.6 °F 82.4 °F 67% 29.50 in 3.1 mi SSW 6.9 mph - N/A   Haze
3:20 PM 96.8 °F 121.7 °F 82.4 °F 63% 29.47 in 3.1 mi SW 6.9 mph - N/A   Haze
3:30 PM 96.8 °F 121.7 °F 82.4 °F 63% 29.47 in 3.1 mi SW 6.9 mph - N/A   Haze
4:20 PM 95.0 °F 119.6 °F 82.4 °F 67% 29.44 in 2.8 mi SW 9.2 mph - N/A   Haze
4:30 PM 95.0 °F 119.6 °F 82.4 °F 67% 29.44 in 2.8 mi SW 9.2 mph - N/A   Haze
5:20 PM 95.0 °F 123.7 °F 84.2 °F 71% 29.44 in 3.1 mi West 11.5 mph - N/A   Haze
5:30 PM 95.0 °F 123.7 °F 84.2 °F 71% 29.44 in 3.1 mi West 11.5 mph - N/A   Haze
6:20 PM 93.2 °F 120.9 °F 84.2 °F 75% 29.44 in 3.1 mi West 11.5 mph - N/A   Haze
6:30 PM 93.2 °F 120.9 °F 84.2 °F 75% 29.44 in 3.1 mi West 11.5 mph - N/A   Haze
7:20 PM 91.4 °F 122.4 °F 86.0 °F 84% 29.44 in 2.8 mi West 13.8 mph - N/A   Clear
7:30 PM 91.4 °F 122.4 °F 86.0 °F 84% 29.44 in 2.8 mi West 13.8 mph - N/A   Clear
8:20 PM 91.4 °F 122.4 °F 86.0 °F 84% 29.44 in 2.8 mi West 13.8 mph - N/A   Clear
8:30 PM 91.4 °F 122.4 °F 86.0 °F 84% 29.44 in 2.8 mi West 13.8 mph - N/A   Clear
9:20 PM 91.4 °F 117.8 °F 84.2 °F 79% 29.44 in 2.8 mi WNW 13.8 mph - N/A   Clear
9:30 PM 91.4 °F 117.8 °F 84.2 °F 79% 29.44 in 2.8 mi WNW 13.8 mph - N/A   Clear
10:20 PM 91.4 °F 122.4 °F 86.0 °F 84% 29.44 in 2.8 mi West 13.8 mph - N/A   Clear
10:30 PM 91.4 °F 122.4 °F 86.0 °F 84% 29.44 in 2.8 mi West 13.8 mph - N/A   Clear
11:20 PM 89.6 °F 119.2 °F 86.0 °F 89% 29.44 in 2.8 mi West 13.8 mph - N/A   Clear
11:30 PM 89.6 °F 119.2 °F 86.0 °F 89% 29.44 in 2.8 mi West 13.8 mph - N/A   Clear